Flag for Canada Weather past 2 weeks in Pond Inlet, Nunavut Territory, Canada

Now
48 °F

Overcast.


Feels Like: 48 °F
Forecast: 45 / 51 °F
Wind: No wind

Location: Pond Inlet

Current Time: Jul 31, 2014 at 3:06:22 AM

Latest Report: Jul 31, 2014 at 2:00 AM


Visibility: 9 mi

Pressure: 30.13 "Hg

Humidity: 94%

Dew point: 46 °F

Location of Pond InletLocation

Historic Weather in Pond Inlet — Graph

°F

Pond Inlet temperature yesterday

Maximum temperature yesterday: 48 °F (at 10:00 PM)
Minimum temperature yesterday: 37 °F (at 3:00 AM)
Average temperature yesterday: 43 °F

Past Weeks' High & Low Weather Summary

 TemperatureHumidityPressure
High61 °F (Jul 25, 4:00 PM)100% (Jul 16, 2:00 AM)30.15 "Hg (Jul 16, 2:00 AM)
Low36 °F (Jul 28, 4:00 AM)55% (Jul 19, 3:00 PM)29.36 "Hg (Jul 18, 12:00 PM)
Average47 °F83%29.80 "Hg
* Reported Jul 16 2:00 AM — Jul 31 2:00 AM, Pond Inlet, Weather by CustomWeather, © 2014

Note: Actual official high and low records may vary slightly from our data, if they occured in-between our weather recording intervals... More about our weather records

Advertising

Pond Inlet weather history for previous 24 hours

 ConditionsComfort  
Time TempWeatherWind HumidityBarometerVisibility
2:00 AM
Jul 31
48 °FOvercast.No wind94%30.13 "Hg9 mi
1:00 AM46 °FOvercast.No wind93%30.13 "Hg9 mi
12:00 AM48 °FOvercast.3 mph94%30.14 "Hg9 mi
11:00 PM
Jul 30
48 °FOvercast.5 mph94%30.14 "Hg9 mi
10:00 PM48 °FOvercast.5 mph94%30.15 "Hg9 mi
9:00 PM46 °FOvercast.3 mph93%30.14 "Hg9 mi
8:00 PM43 °FFog.6 mph100%30.14 "Hg1 mi
7:00 PM46 °FOvercast.6 mph93%30.14 "Hg9 mi
6:00 PM45 °FMore clouds than sun.2 mph93%30.13 "Hg9 mi
5:58 PM45 °FMore clouds than sun.3 mph93%30.13 "Hg9 mi
5:00 PM43 °FFog.3 mph93%30.12 "Hg0 mi
4:00 PM46 °FFog.2 mph93%30.11 "Hg3 mi
3:00 PM43 °FFog.5 mph93%30.11 "Hg0 mi
2:00 PM43 °FFog.6 mph93%30.10 "Hg0 mi
1:54 PM43 °FFog.6 mph93%30.10 "Hg0 mi
1:00 PM43 °FFog.5 mph100%30.09 "Hg0 mi
12:00 PM45 °FFog.5 mph93%30.08 "Hg8 mi
11:00 AM43 °FFog.5 mph100%30.08 "Hg6 mi
10:46 AM41 °FFog.5 mph100%30.08 "Hg1 mi
10:00 AM39 °FFog.5 mph100%30.08 "Hg1 mi
9:00 AM41 °FLight rain. Fog.3 mph93%30.08 "Hg1 mi
8:00 AM43 °FLight rain. Mostly cloudy.6 mph100%30.07 "Hg7 mi
7:50 AM43 °FLight rain. Fog.6 mph100%30.07 "Hg6 mi
7:04 AM39 °FLight rain. Fog.3 mph100%30.08 "Hg5 mi
7:00 AM39 °FLight rain. More clouds than sun.2 mph100%30.08 "Hg7 mi
6:00 AM37 °FLight rain. Overcast.6 mph100%30.08 "Hg9 mi
5:00 AM39 °FLight rain. More clouds than sun.3 mph100%30.06 "Hg9 mi
4:00 AM41 °FLight rain. Mostly cloudy.2 mph93%30.06 "Hg9 mi
3:00 AM37 °FLight rain. Overcast.5 mph93%30.07 "Hg9 mi
Weather by CustomWeather, © 2014

See weather overviewHow to use our weather pages